EW9436 Weather Reports


time (UTC)temp
F
wind
direction
speed
knots
gust
knots
rain 1hr
in
rain 24hr
in
rain mn
in
humidity
%
barometer
mb
20260505090828 50 180 3.5 7.0 0.00 0.00 0.00 86 1018.5
20260505085830 50 164 5.2 7.0 0.00 0.00 0.00 86 1018.6
20260505084928 50 178 4.3 7.0 0.00 0.00 0.00 86 1018.6
20260505083930 50 173 5.2 7.0 0.00 0.00 0.00 87 1018.6
20260505082929 50 180 3.5 5.2 0.00 0.00 0.00 88 1018.7
20260505081929 50 179 4.3 7.0 0.00 0.00 0.00 87 1018.6
20260505080929 50 180 3.5 4.3 0.00 0.00 0.00 88 1018.7
20260505075929 50 183 4.3 7.0 0.00 0.00 0.00 89 1018.8
20260505074927 50 175 4.3 7.8 0.00 0.00 0.00 89 1018.8
20260505074829 50 180 3.5 6.1 0.00 0.00 0.00 89 1018.8
20260505073828 50 176 3.5 6.1 0.00 0.00 0.00 89 1018.8
20260505072827 50 180 3.5 6.1 0.00 0.00 0.00 89 1018.8
20260505072731 50 180 3.5 4.3 0.00 0.00 0.00 89 1018.9
20260505072632 50 180 2.6 4.3 0.00 0.00 0.00 89 1018.8
20260505071728 50 179 3.5 7.8 0.00 0.00 0.00 89 1018.8
20260505070743 50 194 1.7 4.3 0.00 0.00 0.00 89 1018.8
20260505065729 50 193 2.6 6.1 0.00 0.00 0.00 88 1018.8
20260505064729 50 184 3.5 7.8 0.00 0.00 0.00 90 1018.8
20260505064627 50 183 2.6 7.8 0.00 0.00 0.00 89 1018.8
20260505063629 50 180 3.5 7.8 0.00 0.00 0.00 90 1018.8
20260505062629 50 180 1.7 5.2 0.00 0.00 0.00 89 1018.8
20260505061630 50 196 2.6 5.2 0.00 0.00 0.00 90 1018.8
20260505060629 50 199 2.6 6.1 0.00 0.00 0.00 89 1018.8
20260505055644 50 200 1.7 4.3 0.00 0.00 0.00 89 1018.8
20260505054629 50 200 0.0 2.6 0.00 0.00 0.00 88 1018.8
20260505052529 50 202 1.7 5.2 0.00 0.00 0.00 88 1018.8
20260505051527 50 180 1.7 4.3 0.00 0.00 0.00 88 1018.9
20260505050529 50 207 2.6 7.8 0.00 0.00 0.00 88 1019.1
20260505041429 50 177 4.3 7.0 0.00 0.00 0.00 87 1019.1
20260505040428 50 176 5.2 10.4 0.00 0.00 0.00 87 1019.1
20260505040346 50 183 5.2 7.8 0.00 0.00 0.00 87 1019.0
20260505040228 50 180 5.2 8.7 0.00 0.00 0.00 86 1019.0
20260505033321 50 203 3.5 6.1 0.00 0.00 0.00 86 1019.4
20260505032321 50 196 1.7 7.8 0.00 0.00 0.00 86 1019.4
20260505031321 50 184 3.5 8.7 0.00 0.00 0.00 86 1019.4
20260505030323 50 191 3.5 7.8 0.00 0.00 0.00 86 1019.5
20260505024322 50 183 3.5 6.1 0.00 0.00 0.00 85 1019.7
20260505023322 50 180 0.9 3.5 0.00 0.00 0.00 84 1019.7
20260505022323 51 192 3.5 8.7 0.00 0.00 0.00 83 1019.7
20260505021322 51 225 1.7 6.1 0.00 0.00 0.00 84 1019.8
20260505014322 51 205 5.2 7.0 0.00 0.00 0.00 82 1019.3
20260505013323 51 199 2.6 5.2 0.00 0.00 0.00 81 1019.3
20260505010324 51 224 5.2 9.6 0.00 0.00 0.00 78 1018.8
20260505005419 51 225 2.6 7.8 0.00 0.00 0.00 77 1018.7
20260505005323 51 223 4.3 8.7 0.00 0.00 0.00 77 1018.6
20260505003420 51 221 4.3 9.6 0.00 0.00 0.00 77 1018.4
20260505002423 51 221 5.2 10.4 0.00 0.00 0.00 77 1018.2
20260505001521 51 227 4.3 7.0 0.00 0.00 0.00 76 1017.9
20260505001422 51 232 6.1 9.6 0.00 0.00 0.00 77 1018.0
20260504235522 51 185 1.7 6.1 0.00 0.00 0.00 77 1018.0
20260504234522 51 220 4.3 9.6 0.00 0.00 0.00 77 1017.7
20260504233619 52 222 4.3 6.1 0.00 0.00 0.00 76 1017.7
20260504233523 52 205 3.5 8.7 0.00 0.00 0.00 76 1017.7
20260504232620 52 231 5.2 8.7 0.00 0.00 0.00 75 1017.7
20260504231620 52 218 3.5 8.7 0.00 0.00 0.00 74 1017.6
20260504225720 53 214 4.3 8.7 0.00 0.00 0.00 72 1017.5
20260504224724 54 203 4.3 9.6 0.00 0.00 0.00 71 1017.4
20260504224621 54 224 4.3 10.4 0.00 0.00 0.00 71 1017.5
20260504223520 54 202 6.1 11.3 0.00 0.00 0.00 71 1017.4
20260504222522 54 208 6.1 12.2 0.00 0.00 0.00 71 1017.5
20260504220621 54 221 6.1 13.9 0.00 0.00 0.00 70 1017.5
20260504220538 54 217 4.3 7.0 0.00 0.00 0.00 69 1017.4
20260504215521 55 217 6.1 13.9 0.00 0.00 0.00 69 1017.4
20260504215422 55 205 7.0 10.4 0.00 0.00 0.00 69 1017.4
20260504214421 55 201 4.3 8.7 0.00 0.00 0.00 69 1017.5
20260504213421 55 197 4.3 7.8 0.00 0.00 0.00 68 1017.4
20260504211422 55 224 5.2 10.4 0.00 0.00 0.00 68 1017.4
20260504210421 55 217 7.0 15.6 0.00 0.00 0.00 67 1017.5
20260504205421 56 199 6.1 14.8 0.00 0.00 0.00 67 1017.5
20260504204421 56 228 7.8 19.1 0.00 0.00 0.00 66 1017.3
20260504203422 56 212 6.1 11.3 0.00 0.00 0.00 64 1017.2
20260504203320 56 221 6.1 11.3 0.00 0.00 0.00 65 1017.2
20260504202220 57 221 5.2 9.6 0.00 0.00 0.00 64 1017.2
20260504201219 56 227 3.5 8.7 0.00 0.00 0.00 65 1017.0
20260504200224 56 190 5.2 9.6 0.00 0.00 0.00 66 1017.0
20260504194322 55 213 7.0 12.2 0.00 0.00 0.00 70 1017.2
20260504194223 55 208 4.3 6.1 0.00 0.00 0.00 71 1017.2
20260504194121 55 206 7.8 15.6 0.00 0.00 0.00 70 1017.2
20260504194022 55 225 3.5 9.6 0.00 0.00 0.00 71 1017.2
20260504193120 55 212 5.2 8.7 0.00 0.00 0.00 70 1017.2
20260504193020 55 222 7.0 12.2 0.00 0.00 0.00 71 1017.2
20260504192022 55 204 5.2 9.6 0.00 0.00 0.00 71 1017.4
20260504191022 56 207 6.1 11.3 0.00 0.00 0.00 69 1017.3
20260504190119 55 206 4.3 9.6 0.00 0.00 0.00 70 1017.5
20260504190021 55 211 7.0 15.6 0.00 0.00 0.00 70 1017.5
20260504185119 55 216 5.2 9.6 0.00 0.00 0.00 69 1017.6
20260504184123 55 218 6.1 9.6 0.00 0.00 0.00 71 1017.5
20260504183120 55 223 7.8 15.6 0.00 0.00 0.00 71 1017.5
20260504183023 55 217 6.1 18.2 0.00 0.00 0.00 71 1017.5
20260504182020 54 206 5.2 10.4 0.00 0.00 0.00 72 1017.5
20260504180922 54 217 7.8 12.2 0.00 0.00 0.00 71 1017.4
20260504180823 54 213 7.0 13.9 0.00 0.00 0.00 72 1017.3
20260504175820 54 200 6.1 11.3 0.00 0.00 0.00 72 1017.3
20260504174920 54 207 7.0 13.9 0.00 0.00 0.00 72 1017.2
20260504174822 54 199 7.0 9.6 0.00 0.00 0.00 73 1017.2
20260504173919 54 198 4.3 7.0 0.00 0.00 0.00 72 1017.3
20260504172922 54 213 5.2 9.6 0.00 0.00 0.00 72 1017.5
20260504170822 54 204 7.0 9.6 0.00 0.00 0.00 71 1017.4
20260504150521 54 217 5.2 9.6 0.00 0.00 0.00 71 1018.2
20260504141321 54 198 4.3 7.8 0.00 0.00 0.00 69 1018.6
20260504141221 54 194 4.3 7.8 0.00 0.00 0.00 70 1018.6
20260504141120 54 207 3.5 7.0 0.00 0.00 0.00 70 1018.6
20260504140123 54 211 7.0 13.0 0.00 0.00 0.00 69 1018.6
20260504130120 54 210 3.5 9.6 0.00 0.00 0.00 68 1018.8